Kezdőlap
METAR-TAF:

METAR-TAF

Repülőterek :

Anoka County-Blaine Airport (Janes Field)

Minneapolis-Blaine, Minnesota, Amerikai Egyesült Államok

földrajzi szélesség: 45-09N, földrajzi hosszúság: 093-13W, magasság: 278 m

Jelenlegi meteorológiai megfigyelések

A jelentés 21 perccel ezelõtt készült, 02:45 UTC
Dél-délnyugati szél 12 kt széllökések: 18 kt
Hőmérséklet -3°C
Páratartalom 68%
Légköri nyomás 1009 hPa
Látótávolság: 16.1 km
Szórványos felhőzet 12000 lábon
Borult 15000 lábon

METAR: KANE 270245Z 21012G18KT 10SM SCT120 OVC150 M03/M08 A2980

Idő: 21:06 (03:06 UTC)


TAF: hiányzik

Meteorológiai megfigyelések és előrejelzések több, mint 4000 repülőtéren (METAR és TAF jelentéseket).

A térképen piros és sárga pontok jelzik az elérhető meteorológiai állomásokat.

Mozgassa az egeret a pont fölött, hogy megjelenjen az állomás neve.

Azután kattintson az időjárási megfigyelések és előrejelzések megtekintéséhez.

A térkép megváltoztatása: kattintson a fekete keresztel jelölt zöld gombra ráközelítéshez, a vonallal jelölt zöld gombra távolításhoz, vagy a zöld nyilakra a szomszédos térképek eléréséhez.


METAR-TAF: